Tampa, FL

5:36 AM EST on February 09, 2016 (GMT -0500)
MacDill Air Force Base

Weather History for KMCF - January, 2012

Change the Weather History Date:

Friday, January 13, 2012

  Actual Average Record
Temperature  
Mean Temperature 58 °F -  
Max Temperature 66 °F 67 °F 83 °F (2013)
Min Temperature 50 °F 48 °F 30 °F (2011)
Degree Days  
Heating Degree Days 7    
Growing Degree Days 8 (Base 50)    
Moisture  
Dew Point 48 °F    
Average Humidity 72    
Maximum Humidity 94    
Minimum Humidity 52    
Precipitation  
Precipitation 0.00 in - - ()
Sea Level Pressure  
Sea Level Pressure 30.13 in    
Wind  
Wind Speed 9 mph (NNW)    
Max Wind Speed 13 mph    
Max Gust Speed 20 mph    
Visibility 10 miles    
Events      
Averages and records for this station are not official NWS values.
T = Trace of Precipitation, MM = Missing Value Source: NWS Daily Summary

Daily Weather History Graph

Daily Weather History Graph

Search for Another Location

Airport or City:

Trip Planner

Search our weather history database for the weather conditions in past years. The results will help you decide how hot, cold, wet, or windy it might be!

Date:

Astronomy

Jan. 13, 2012 Rise Set
Actual Time 7:22 AM EST 5:54 PM EST
Civil Twilight 6:57 AM EST 6:20 PM EST
Nautical Twilight 6:28 AM EST 6:49 PM EST
Astronomical Twilight 6:00 AM EST 7:17 PM EST
Moon 10:34 PM EST (1/13) 10:04 AM EST (1/13)
Length of Visible Light 11h 23m
Length of Day
10h 32m
Waning Gibbous, 79% of the Moon is Illuminated
Jan 13
Waning Gibbous
Jan 16
Last Quarter
Jan 23
New
Jan 30
First Quarter
Feb 7
Full

Hourly Weather History & Observations

Time (EST) Temp. Dew Point Humidity Pressure Visibility Wind Dir Wind Speed Gust Speed Precip Events Conditions
12:14 AM 66.2 °F 64.4 °F 94% 29.99 in 10.0 mi WNW 9.2 mph - N/A   Mostly Cloudy
12:16 AM 66.2 °F 64.4 °F 94% 29.99 in 10.0 mi WNW 9.2 mph - N/A   Mostly Cloudy
12:27 AM 66.2 °F 64.4 °F 94% 29.99 in 10.0 mi NW 11.5 mph 17.3 mph N/A   Mostly Cloudy
12:55 AM 64.9 °F 62.6 °F 92% 30.00 in 10.0 mi WNW 12.7 mph 18.4 mph N/A   Partly Cloudy
1:55 AM 63.3 °F 58.8 °F 85% 30.01 in 10.0 mi NW 9.2 mph 16.1 mph N/A   Clear
2:55 AM 62.6 °F 58.1 °F 85% 30.02 in 10.0 mi Variable 6.9 mph - N/A   Scattered Clouds
3:04 AM 62.6 °F 57.2 °F 82% 30.02 in 10.0 mi NW 11.5 mph 16.1 mph N/A   Mostly Cloudy
3:49 AM 60.8 °F 53.6 °F 77% 30.04 in 10.0 mi NW 12.7 mph 19.6 mph N/A   Scattered Clouds
3:55 AM 60.3 °F 53.1 °F 77% 30.04 in 10.0 mi NNW 11.5 mph - N/A   Partly Cloudy
4:55 AM 58.1 °F 50.4 °F 75% 30.07 in 10.0 mi NNW 9.2 mph - N/A   Clear
5:55 AM 55.9 °F 46.9 °F 72% 30.11 in 10.0 mi NNW 10.4 mph - N/A   Clear
6:55 AM 54.7 °F 45.7 °F 72% 30.14 in 10.0 mi NNW 10.4 mph 16.1 mph N/A   Clear
7:55 AM 54.1 °F 43.3 °F 67% 30.14 in 10.0 mi NW 10.4 mph - N/A   Clear
8:55 AM 57.2 °F 43.7 °F 61% 30.17 in 10.0 mi North 10.4 mph - N/A   Clear
9:55 AM 55.8 °F 44.4 °F 66% 30.19 in 10.0 mi NNE 8.1 mph - N/A   Clear
10:55 AM 58.1 °F 43.0 °F 57% 30.19 in 10.0 mi Variable 6.9 mph - N/A   Partly Cloudy
11:55 AM 59.9 °F 42.1 °F 52% 30.19 in 10.0 mi North 8.1 mph - N/A   Scattered Clouds
12:55 PM 58.1 °F 41.0 °F 53% 30.18 in 10.0 mi NNE 8.1 mph - N/A   Mostly Cloudy
1:55 PM 57.9 °F 41.7 °F 55% 30.15 in 10.0 mi NNW 9.2 mph - N/A   Mostly Cloudy
2:55 PM 58.5 °F 41.2 °F 53% 30.17 in 10.0 mi North 8.1 mph - N/A   Partly Cloudy
3:55 PM 56.8 °F 40.6 °F 55% 30.17 in 10.0 mi NNW 8.1 mph - N/A   Partly Cloudy
4:55 PM 53.8 °F 41.4 °F 63% 30.19 in 10.0 mi Variable 4.6 mph - N/A   Clear
5:55 PM 51.4 °F 41.4 °F 68% 30.19 in 10.0 mi NNW 4.6 mph - N/A   Mostly Cloudy
6:55 PM 50.0 °F 41.4 °F 72% 30.21 in 10.0 mi North 4.6 mph - N/A   Partly Cloudy
7:55 PM 50.2 °F 42.6 °F 75% 30.22 in 10.0 mi NE 3.5 mph - N/A   Scattered Clouds
8:55 PM 50.2 °F 43.0 °F 76% 30.24 in 10.0 mi North 4.6 mph - N/A   Mostly Cloudy
9:55 PM 51.4 °F 41.9 °F 70% 30.26 in 10.0 mi NNW 9.2 mph - N/A   Overcast
10:55 PM 52.3 °F 43.3 °F 71% 30.25 in 10.0 mi NNW 9.2 mph - N/A   Overcast
11:55 PM 53.1 °F 45.1 °F 74% 30.25 in 10.0 mi North 8.1 mph - N/A   Overcast